| time (UTC) | temp F | wind direction | speed knots | gust knots | rain 1hr in | rain 24hr in | rain mn in | humidity % | barometer mb |
| 20260906120021 | 72 | 44 | 0.0 | 0.0 | 0.00 | 0.16 | 0.00 | 100 | 1011.2 |
| 20260906114520 | 71 | 44 | 0.0 | 0.0 | 0.00 | 0.16 | 0.00 | 100 | 1011.1 |
| 20260906113020 | 71 | 44 | 0.0 | 0.0 | 0.00 | 0.16 | 0.00 | 100 | 1011.0 |
| 20260906111519 | 71 | 44 | 0.0 | 0.0 | 0.00 | 0.16 | 0.00 | 99 | 1010.9 |
| 20260906110019 | 71 | 44 | 0.0 | 0.0 | 0.00 | 0.16 | 0.00 | 99 | 1011.0 |
| 20260906104519 | 71 | 44 | 0.0 | 0.0 | 0.00 | 0.16 | 0.00 | 99 | 1010.8 |
| 20260906103019 | 71 | 44 | 0.0 | 0.0 | 0.00 | 0.16 | 0.00 | 99 | 1010.8 |
| 20260906101518 | 71 | 45 | 0.0 | 0.0 | 0.00 | 0.16 | 0.00 | 99 | 1010.7 |
| 20260906100018 | 71 | 45 | 0.0 | 0.0 | 0.00 | 0.16 | 0.00 | 99 | 1010.7 |
| 20260906094517 | 71 | 45 | 0.0 | 0.0 | 0.00 | 0.16 | 0.00 | 99 | 1010.8 |
| 20260906093028 | 71 | 45 | 0.0 | 0.0 | 0.00 | 0.16 | 0.00 | 99 | 1010.8 |
| 20260906091515 | 71 | 45 | 0.0 | 0.0 | 0.00 | 0.16 | 0.00 | 99 | 1010.7 |
| 20260906090015 | 71 | 45 | 0.0 | 0.0 | 0.00 | 0.16 | 0.00 | 99 | 1010.6 |
| 20260906084515 | 71 | 45 | 0.0 | 0.0 | 0.00 | 0.16 | 0.00 | 99 | 1010.7 |
| 20260906083017 | 71 | 45 | 0.0 | 0.0 | 0.00 | 0.16 | 0.00 | 99 | 1010.7 |
| 20260906081516 | 71 | 45 | 0.0 | 0.0 | 0.00 | 0.16 | 0.00 | 99 | 1010.7 |
| 20260906080012 | 71 | 44 | 0.0 | 0.0 | 0.00 | 0.16 | 0.00 | 99 | 1010.4 |
| 20260906074512 | 71 | 45 | 0.0 | 0.0 | 0.00 | 0.16 | 0.00 | 99 | 1010.5 |
| 20260906073013 | 71 | 44 | 0.0 | 0.0 | 0.00 | 0.16 | 0.00 | 99 | 1010.4 |
| 20260906071510 | 71 | 44 | 0.0 | 0.0 | 0.00 | 0.16 | 0.00 | 99 | 1010.4 |
| 20260906070009 | 71 | 51 | 0.0 | 0.0 | 0.00 | 0.16 | 0.00 | 99 | 1010.6 |
| 20260906064511 | 71 | 51 | 0.0 | 0.0 | 0.00 | 0.16 | 0.00 | 99 | 1010.6 |
| 20260906063008 | 71 | 51 | 0.0 | 0.0 | 0.00 | 0.16 | 0.00 | 99 | 1010.8 |
| 20260906061507 | 71 | 51 | 0.0 | 0.0 | 0.00 | 0.16 | 0.00 | 99 | 1010.8 |
| 20260906060004 | 71 | 51 | 0.0 | 0.0 | 0.00 | 0.16 | 0.00 | 99 | 1011.0 |
| 20260906054501 | 71 | 51 | 0.0 | 0.9 | 0.00 | 0.16 | 0.00 | 100 | 1011.3 |
| 20260906053101 | 71 | 50 | 0.0 | 0.0 | 0.00 | 0.16 | 0.00 | 99 | 1011.4 |
| 20260906051601 | 71 | 50 | 0.0 | 0.0 | 0.00 | 0.16 | 0.00 | 99 | 1011.4 |
| 20260906050057 | 71 | 50 | 0.0 | 0.0 | 0.00 | 0.16 | 0.00 | 99 | 1011.4 |
| 20260906044554 | 71 | 49 | 0.0 | 0.9 | 0.00 | 0.16 | 0.00 | 99 | 1011.5 |
| 20260906043051 | 71 | 49 | 0.0 | 0.9 | 0.00 | 0.16 | 0.00 | 98 | 1011.4 |
| 20260906041549 | 71 | 42 | 0.0 | 0.0 | 0.00 | 0.16 | 0.00 | 98 | 1011.0 |
| 20260906040048 | 71 | 36 | 0.0 | 0.0 | 0.00 | 0.16 | 0.00 | 98 | 1010.9 |
| 20260906034545 | 71 | 55 | 0.0 | 0.9 | 0.00 | 0.16 | 0.16 | 98 | 1010.9 |
| 20260906033045 | 71 | 45 | 0.0 | 0.9 | 0.00 | 0.16 | 0.16 | 98 | 1010.9 |
| 20260906031544 | 71 | 48 | 0.0 | 0.9 | 0.00 | 0.16 | 0.16 | 98 | 1010.8 |
| 20260906030143 | 71 | 45 | 0.0 | 0.9 | 0.00 | 0.16 | 0.16 | 98 | 1011.1 |
| 20260906024543 | 71 | 45 | 0.0 | 0.0 | 0.00 | 0.16 | 0.16 | 98 | 1010.9 |
| 20260906023046 | 71 | 46 | 0.0 | 0.0 | 0.01 | 0.16 | 0.16 | 98 | 1010.9 |
| 20260906021543 | 71 | 46 | 0.0 | 0.9 | 0.01 | 0.16 | 0.16 | 98 | 1011.3 |
| 20260906020042 | 71 | 42 | 0.0 | 0.0 | 0.01 | 0.16 | 0.16 | 97 | 1011.5 |
| 20260906014545 | 71 | 46 | 0.0 | 0.9 | 0.02 | 0.16 | 0.16 | 97 | 1011.6 |
| 20260906013041 | 71 | 46 | 0.0 | 0.0 | 0.03 | 0.15 | 0.15 | 97 | 1011.7 |
| 20260906011539 | 70 | 52 | 0.0 | 0.9 | 0.06 | 0.15 | 0.15 | 97 | 1011.4 |
| 20260906010039 | 70 | 329 | 0.0 | 0.0 | 0.15 | 0.15 | 0.15 | 96 | 1010.6 |
| 20260906004541 | 70 | 329 | 0.0 | 2.6 | 0.14 | 0.14 | 0.14 | 95 | 1010.3 |
| 20260906003038 | 70 | 121 | 0.0 | 2.6 | 0.12 | 0.12 | 0.12 | 94 | 1011.0 |
| 20260906001537 | 70 | 260 | 0.0 | 2.6 | 0.08 | 0.08 | 0.08 | 90 | 1010.5 |
| 20260905234528 | 82 | 81 | 2.6 | 8.7 | 0.01 | 0.01 | 0.01 | 71 | 1011.5 |
| 20260905233028 | 88 | 325 | 0.0 | 8.7 | 0.00 | 0.00 | 0.00 | 73 | 1009.5 |
| 20260905231527 | 91 | 252 | 5.2 | 11.3 | 0.00 | 0.00 | 0.00 | 68 | 1008.4 |
| 20260905230126 | 92 | 262 | 5.2 | 11.3 | 0.00 | 0.00 | 0.00 | 66 | 1008.4 |
| 20260905224525 | 94 | 279 | 5.2 | 7.8 | 0.00 | 0.00 | 0.00 | 63 | 1008.5 |
| 20260905223025 | 95 | 163 | 0.0 | 0.0 | 0.00 | 0.00 | 0.00 | 56 | 1008.5 |
| 20260905221534 | 96 | 233 | 1.7 | 4.3 | 0.00 | 0.00 | 0.00 | 53 | 1008.2 |
| 20260905220023 | 96 | 233 | 0.9 | 2.6 | 0.00 | 0.00 | 0.00 | 50 | 1008.1 |
| 20260905214522 | 96 | 257 | 0.0 | 2.6 | 0.00 | 0.00 | 0.00 | 50 | 1008.0 |
| 20260905213031 | 97 | 238 | 0.9 | 2.6 | 0.00 | 0.00 | 0.00 | 53 | 1008.0 |
| 20260905211521 | 97 | 210 | 1.7 | 3.5 | 0.00 | 0.00 | 0.00 | 48 | 1008.1 |
| 20260905210025 | 97 | 237 | 1.7 | 3.5 | 0.00 | 0.00 | 0.00 | 48 | 1008.4 |
| 20260905204515 | 98 | 240 | 1.7 | 3.5 | 0.00 | 0.00 | 0.00 | 49 | 1008.5 |
| 20260905203014 | 98 | 255 | 1.7 | 3.5 | 0.00 | 0.00 | 0.00 | 49 | 1008.7 |
| 20260905201516 | 98 | 238 | 0.0 | 3.5 | 0.00 | 0.00 | 0.00 | 48 | 1008.9 |
| 20260905200006 | 97 | 232 | 0.0 | 2.6 | 0.00 | 0.00 | 0.00 | 49 | 1009.3 |
| 20260905194503 | 98 | 264 | 0.9 | 3.5 | 0.00 | 0.00 | 0.00 | 50 | 1009.6 |
| 20260905193059 | 96 | 247 | 1.7 | 5.2 | 0.00 | 0.00 | 0.00 | 51 | 1009.8 |
| 20260905191557 | 95 | 235 | 2.6 | 5.2 | 0.00 | 0.00 | 0.00 | 52 | 1009.9 |
| 20260905190112 | 95 | 245 | 3.5 | 5.2 | 0.00 | 0.00 | 0.00 | 53 | 1009.9 |
| 20260905184606 | 95 | 250 | 1.7 | 4.3 | 0.00 | 0.00 | 0.00 | 53 | 1010.1 |
| 20260905183049 | 94 | 263 | 1.7 | 5.2 | 0.00 | 0.00 | 0.00 | 55 | 1010.4 |
| 20260905181545 | 93 | 244 | 4.3 | 6.1 | 0.00 | 0.00 | 0.00 | 57 | 1010.8 |
| 20260905180043 | 93 | 234 | 0.9 | 3.5 | 0.00 | 0.00 | 0.00 | 57 | 1010.8 |
| 20260905174545 | 93 | 226 | 1.7 | 3.5 | 0.00 | 0.00 | 0.00 | 58 | 1011.1 |
| 20260905173039 | 93 | 244 | 0.0 | 5.2 | 0.00 | 0.00 | 0.00 | 57 | 1011.3 |
| 20260905171536 | 93 | 211 | 0.0 | 4.3 | 0.00 | 0.00 | 0.00 | 57 | 1011.4 |
| 20260905170035 | 94 | 224 | 0.0 | 2.6 | 0.00 | 0.00 | 0.00 | 56 | 1011.5 |
| 20260905164531 | 94 | 226 | 0.0 | 1.7 | 0.00 | 0.00 | 0.00 | 56 | 1011.9 |
| 20260905163028 | 93 | 144 | 0.0 | 3.5 | 0.00 | 0.00 | 0.00 | 60 | 1012.1 |
| 20260905161526 | 93 | 224 | 1.7 | 4.3 | 0.00 | 0.00 | 0.00 | 60 | 1012.3 |
| 20260905160023 | 92 | 224 | 1.7 | 4.3 | 0.00 | 0.00 | 0.00 | 61 | 1012.5 |
| 20260905154521 | 90 | 233 | 2.6 | 6.1 | 0.00 | 0.00 | 0.00 | 63 | 1012.5 |
| 20260905153018 | 90 | 117 | 0.9 | 7.0 | 0.00 | 0.00 | 0.00 | 65 | 1012.6 |
| 20260905151514 | 89 | 269 | 1.7 | 6.1 | 0.00 | 0.00 | 0.00 | 70 | 1012.7 |
| 20260905150010 | 87 | 179 | 1.7 | 4.3 | 0.00 | 0.00 | 0.00 | 72 | 1012.8 |
| 20260905144507 | 86 | 200 | 0.0 | 5.2 | 0.00 | 0.00 | 0.00 | 74 | 1013.0 |
| 20260905143004 | 86 | 255 | 1.7 | 3.5 | 0.00 | 0.00 | 0.00 | 76 | 1013.1 |
| 20260905141628 | 84 | 138 | 1.7 | 3.5 | 0.00 | 0.00 | 0.00 | 78 | 1013.2 |
| 20260905140057 | 84 | 211 | 0.0 | 2.6 | 0.00 | 0.00 | 0.00 | 80 | 1013.2 |
| 20260905134553 | 82 | 141 | 0.0 | 1.7 | 0.00 | 0.00 | 0.00 | 83 | 1013.2 |
| 20260905133049 | 81 | 124 | 0.0 | 0.9 | 0.00 | 0.00 | 0.00 | 87 | 1013.4 |
| 20260905131558 | 80 | 113 | 0.0 | 0.9 | 0.00 | 0.00 | 0.00 | 89 | 1013.4 |
| 20260905130045 | 78 | 228 | 0.0 | 0.9 | 0.00 | 0.00 | 0.00 | 92 | 1013.5 |
| 20260905124549 | 77 | 195 | 0.0 | 0.0 | 0.00 | 0.00 | 0.00 | 96 | 1013.4 |
| 20260905123054 | 76 | 153 | 0.0 | 0.0 | 0.00 | 0.00 | 0.00 | 97 | 1013.6 |
| 20260905121542 | 75 | 153 | 0.0 | 0.0 | 0.00 | 0.00 | 0.00 | 97 | 1013.5 |